Location: Eboldshausen
(51.7766°N, 10.0050°E)
Time: 18:00:44
(UTC+00:00)

Cosmos 1943 Rocket - Pass Details

Date: 15 November 2025
Orbit: 812 x 841 km, 71.0° (Epoch: 09 December)

Event Time Altitude Azimuth Distance (km) Brightness Sun altitude
Rises 18:21:51 0° 221° (SW) 3,375 5.8 -26.4°
Reaches altitude 10° 18:24:20 10° 225° (SW) 2,441 5.1 -26.8°
Maximum altitude 18:29:52 60° 306° (NW) 950 2.6 -27.7°
Enters shadow 18:31:38 41° 4° (N) 1,193 2.9 -28.0°
